Weather History for Rolla, ND

Change the Weather History Date:

Thursday, October 17, 2013

  Actual Average (KRUG) Record (KRUG)
Temperature  
Mean Temperature 39 °F -  
Max Temperature 46 °F 53 °F 78 °F (1963)
Min Temperature 32 °F 30 °F 7 °F (1948)
Degree Days  
Heating Degree Days 26    
Moisture  
Dew Point 32 °F    
Average Humidity 78    
Maximum Humidity 100    
Minimum Humidity 49    
Precipitation  
Precipitation 0.01 in - - ()
Sea Level Pressure  
Sea Level Pressure 29.95 in    
Wind  
Wind Speed 12 mph (NW)    
Max Wind Speed 18 mph    
Max Gust Speed 24 mph    
Visibility 10 miles    
Events Rain    
Averages and records for this station are not official NWS values.
T = Trace of Precipitation, MM = Missing Value Source: NWS Daily Summary

Daily Weather History Graph

Daily Weather History Graph

Search for Another Location

Airport:

Trip Planner

Search our weather history database for the weather conditions in past years. The results will help you decide how hot, cold, wet, or windy it might be!

Date:

Astronomy

Oct. 17, 2013 Rise Set
Actual Time 8:02 AM CDT 6:44 PM CDT
Civil Twilight 7:30 AM CDT 7:16 PM CDT
Nautical Twilight 6:53 AM CDT 7:52 PM CDT
Astronomical Twilight 6:17 AM CDT 8:29 PM CDT
Moon 6:02 PM CDT (10/17) 6:31 AM CDT (10/17)
Length of Visible Light 11h 45m
Length of Day
10h 41m
Waxing Gibbous, 98% of the Moon is Illuminated
Oct 17
Waxing Gibbous
Oct 18
Full
Oct 26
Last Quarter
Nov 3
New
Nov 9
First Quarter

Hourly Weather History & Observations

Time (CDT) Temp. Windchill Dew Point Humidity Pressure Visibility Wind Dir Wind Speed Gust Speed Precip Events Conditions
12:15 AM 41.0 °F 33.1 °F 35.6 °F 81% 29.90 in 10.0 mi NNW 15.0 mph 21.9 mph N/A   Overcast
12:35 AM 41.0 °F 33.1 °F 35.6 °F 81% 29.90 in 10.0 mi NNW 15.0 mph 24.2 mph N/A   Overcast
12:55 AM 39.2 °F 30.5 °F 35.6 °F 87% 29.90 in 10.0 mi NNW 16.1 mph 21.9 mph N/A   Overcast
1:15 AM 39.2 °F 31.6 °F 37.4 °F 93% 29.91 in 10.0 mi North 12.7 mph 21.9 mph N/A Rain Light Rain
1:35 AM 39.2 °F 31.2 °F 37.4 °F 93% 29.91 in 10.0 mi North 13.8 mph - N/A   Overcast
1:55 AM 39.2 °F 31.6 °F 37.4 °F 93% 29.92 in 10.0 mi North 12.7 mph 18.4 mph N/A Rain Light Rain
2:15 AM 37.4 °F 29.8 °F 37.4 °F 100% 29.92 in 10.0 mi North 11.5 mph - N/A Rain Light Rain
2:35 AM 37.4 °F 30.8 °F 37.4 °F 100% 29.93 in 10.0 mi North 9.2 mph - N/A Rain Light Rain
2:55 AM 37.4 °F 28.9 °F 37.4 °F 100% 29.93 in 8.0 mi North 13.8 mph - 0.01 in Rain Light Rain
3:15 AM 37.4 °F 30.3 °F 35.6 °F 93% 29.93 in 10.0 mi North 10.4 mph - N/A Rain Light Rain
3:35 AM 35.6 °F 29.9 °F 35.6 °F 100% 29.93 in 10.0 mi NNW 6.9 mph - N/A   Overcast
3:55 AM 35.6 °F 29.2 °F 35.6 °F 100% 29.93 in 10.0 mi NNW 8.1 mph - N/A   Overcast
4:15 AM 37.4 °F 30.8 °F 35.6 °F 93% 29.93 in 10.0 mi NNW 9.2 mph - N/A   Overcast
4:35 AM 37.4 °F 31.4 °F 37.4 °F 100% 29.94 in 10.0 mi NNW 8.1 mph - N/A   Overcast
4:55 AM 35.6 °F 28.6 °F 35.6 °F 100% 29.94 in 10.0 mi NNW 9.2 mph - N/A   Overcast
5:15 AM 35.6 °F 28.6 °F 35.6 °F 100% 29.95 in 10.0 mi NNW 9.2 mph - N/A   Overcast
5:35 AM 35.6 °F 28.6 °F 33.8 °F 93% 29.95 in 10.0 mi NW 9.2 mph - N/A   Overcast
5:55 AM 35.6 °F 28.6 °F 32.0 °F 87% 29.95 in 10.0 mi NW 9.2 mph - N/A   Mostly Cloudy
6:15 AM 35.6 °F 27.1 °F 32.0 °F 87% 29.96 in 10.0 mi NNW 12.7 mph 16.1 mph N/A   Mostly Cloudy
6:35 AM 35.6 °F 28.0 °F 32.0 °F 87% 29.96 in 10.0 mi NNW 10.4 mph - N/A   Overcast
6:55 AM 35.6 °F 28.0 °F 32.0 °F 87% 29.97 in 10.0 mi NW 10.4 mph - N/A   Overcast
7:15 AM 33.8 °F 26.4 °F 32.0 °F 93% 29.97 in 10.0 mi NNW 9.2 mph - N/A   Overcast
7:35 AM 32.0 °F 24.2 °F 32.0 °F 100% 29.97 in 10.0 mi NW 9.2 mph - N/A   Overcast
7:55 AM 32.0 °F 24.8 °F 32.0 °F 100% 29.98 in 10.0 mi NNW 8.1 mph - N/A   Mostly Cloudy
8:15 AM 32.0 °F 24.8 °F 32.0 °F 100% 29.98 in 10.0 mi NW 8.1 mph - N/A   Partly Cloudy
8:35 AM 32.0 °F 24.2 °F 32.0 °F 100% 29.98 in 10.0 mi NNW 9.2 mph - N/A   Clear
8:55 AM 33.8 °F 26.4 °F 32.0 °F 93% 29.99 in 10.0 mi NNW 9.2 mph - N/A   Clear
9:15 AM 35.6 °F 27.5 °F 32.0 °F 87% 29.99 in 10.0 mi NNW 11.5 mph - N/A   Clear
9:35 AM 35.6 °F 27.5 °F 32.0 °F 87% 30.00 in 10.0 mi NNW 11.5 mph 19.6 mph N/A   Clear
9:55 AM 35.6 °F 27.1 °F 32.0 °F 87% 30.00 in 10.0 mi NW 12.7 mph 17.3 mph N/A   Clear
10:15 AM 37.4 °F 29.3 °F 32.0 °F 81% 30.00 in 10.0 mi NW 12.7 mph - N/A   Clear
10:35 AM 37.4 °F 28.9 °F 32.0 °F 81% 30.00 in 10.0 mi NNW 13.8 mph - N/A   Clear
10:55 AM 39.2 °F 31.2 °F 32.0 °F 75% 30.00 in 10.0 mi NW 13.8 mph - N/A   Clear
11:15 AM 39.2 °F 30.2 °F 32.0 °F 75% 30.00 in 10.0 mi NW 17.3 mph 20.7 mph N/A   Clear
11:35 AM 39.2 °F 30.8 °F 32.0 °F 75% 29.99 in 10.0 mi NNW 15.0 mph 21.9 mph N/A   Clear
11:55 AM 41.0 °F 32.8 °F 32.0 °F 70% 30.00 in 10.0 mi NNW 16.1 mph - N/A   Clear
12:15 PM 41.0 °F 33.1 °F 30.2 °F 65% 29.99 in 10.0 mi NNW 15.0 mph 24.2 mph N/A   Partly Cloudy
12:35 PM 41.0 °F 32.5 °F 28.4 °F 61% 29.99 in 10.0 mi NNW 17.3 mph 24.2 mph N/A   Scattered Clouds
12:55 PM 41.0 °F 33.1 °F 30.2 °F 65% 29.99 in 10.0 mi NNW 15.0 mph 21.9 mph N/A   Mostly Cloudy
1:15 PM 42.8 °F 35.1 °F 28.4 °F 57% 29.98 in 10.0 mi NNW 16.1 mph 23.0 mph N/A   Scattered Clouds
1:35 PM 42.8 °F 35.4 °F 30.2 °F 61% 29.98 in 10.0 mi NW 15.0 mph - N/A   Mostly Cloudy
1:55 PM 42.8 °F 35.4 °F 28.4 °F 57% 29.97 in 10.0 mi NW 15.0 mph 21.9 mph N/A   Scattered Clouds
2:15 PM 44.6 °F 38.1 °F 28.4 °F 53% 29.96 in 10.0 mi NW 13.8 mph 21.9 mph N/A   Scattered Clouds
2:35 PM 42.8 °F 36.2 °F 28.4 °F 57% 29.96 in 10.0 mi NW 12.7 mph 21.9 mph N/A   Partly Cloudy
2:55 PM 44.6 °F 36.9 °F 28.4 °F 53% 29.95 in 10.0 mi NNW 18.4 mph 21.9 mph N/A   Partly Cloudy
3:15 PM 44.6 °F 37.4 °F 26.6 °F 49% 29.95 in 10.0 mi NW 16.1 mph 23.0 mph N/A   Partly Cloudy
3:35 PM 44.6 °F 37.8 °F 26.6 °F 49% 29.95 in 10.0 mi NNW 15.0 mph 18.4 mph N/A   Scattered Clouds
3:55 PM 44.6 °F 37.8 °F 28.4 °F 53% 29.95 in 10.0 mi NW 15.0 mph - N/A   Partly Cloudy
4:15 PM 44.6 °F 37.4 °F 26.6 °F 49% 29.95 in 10.0 mi WNW 16.1 mph - N/A   Partly Cloudy
4:35 PM 44.6 °F 38.4 °F 26.6 °F 49% 29.95 in 10.0 mi NW 12.7 mph 17.3 mph N/A   Partly Cloudy
4:55 PM 46.4 °F 41.1 °F 28.4 °F 50% 29.94 in 10.0 mi WNW 11.5 mph - N/A   Scattered Clouds
5:15 PM 44.6 °F 38.8 °F 28.4 °F 53% 29.94 in 10.0 mi NW 11.5 mph 17.3 mph N/A   Partly Cloudy
5:35 PM 44.6 °F 38.4 °F 28.4 °F 53% 29.94 in 10.0 mi NW 12.7 mph 16.1 mph N/A   Clear
5:55 PM 42.8 °F 36.6 °F 28.4 °F 57% 29.94 in 10.0 mi WNW 11.5 mph - N/A   Scattered Clouds
6:15 PM 41.0 °F 32.8 °F 28.4 °F 61% 29.95 in 10.0 mi WNW 16.1 mph - N/A   Overcast
6:35 PM 41.0 °F 33.9 °F 30.2 °F 65% 29.95 in 10.0 mi NW 12.7 mph 17.3 mph N/A   Overcast
6:55 PM 41.0 °F 34.3 °F 32.0 °F 70% 29.95 in 10.0 mi WNW 11.5 mph - N/A   Overcast
7:15 PM 39.2 °F 34.2 °F 32.0 °F 75% 29.94 in 10.0 mi West 6.9 mph - N/A   Overcast
7:35 PM 39.2 °F 33.0 °F 32.0 °F 75% 29.95 in 10.0 mi West 9.2 mph - N/A   Overcast
7:55 PM 39.2 °F 33.0 °F 32.0 °F 75% 29.94 in 10.0 mi West 9.2 mph - N/A   Mostly Cloudy
8:15 PM 37.4 °F 31.4 °F 32.0 °F 81% 29.94 in 10.0 mi West 8.1 mph - N/A   Overcast
8:35 PM 37.4 °F 31.4 °F 32.0 °F 81% 29.94 in 10.0 mi West 8.1 mph - N/A   Mostly Cloudy
8:55 PM 35.6 °F 28.6 °F 32.0 °F 87% 29.94 in 10.0 mi West 9.2 mph - N/A   Scattered Clouds
9:15 PM 37.4 °F 30.8 °F 32.0 °F 81% 29.94 in 10.0 mi WNW 9.2 mph - N/A   Scattered Clouds
9:35 PM 37.4 °F 31.4 °F 32.0 °F 81% 29.94 in 10.0 mi West 8.1 mph - N/A   Partly Cloudy
9:55 PM 37.4 °F 30.3 °F 30.2 °F 75% 29.94 in 10.0 mi WNW 10.4 mph - N/A   Scattered Clouds
10:15 PM 35.6 °F 28.6 °F 30.2 °F 81% 29.94 in 10.0 mi WNW 9.2 mph - N/A   Partly Cloudy
10:35 PM 35.6 °F 27.5 °F 30.2 °F 81% 29.94 in 10.0 mi NW 11.5 mph - N/A   Clear
10:55 PM 35.6 °F 28.6 °F 28.4 °F 75% 29.94 in 10.0 mi WNW 9.2 mph - N/A   Clear
11:15 PM 33.8 °F 26.4 °F 28.4 °F 81% 29.94 in 10.0 mi WNW 9.2 mph - N/A   Clear
11:35 PM 33.8 °F 26.4 °F 28.4 °F 81% 29.94 in 10.0 mi NW 9.2 mph - N/A   Clear
11:55 PM 33.8 °F 27.0 °F 28.4 °F 81% 29.94 in 10.0 mi WNW 8.1 mph - N/A   Clear